Connaught Arpt, Ireland

7:54 PM GMT on February 24, 2017 (GMT +0000)
Connaught

Weather History for EIKN - February, 2013

Change the Weather History Date:

Thursday, February 28, 2013

  Actual Average Record
Temperature  
Mean Temperature 39 °F -  
Max Temperature 45 °F - - ()
Min Temperature 33 °F - - ()
Degree Days  
Heating Degree Days 26    
Moisture  
Dew Point 37 °F    
Average Humidity 91    
Maximum Humidity 100    
Minimum Humidity 76    
Precipitation  
Precipitation 0.00 in - - ()
Sea Level Pressure  
Sea Level Pressure 30.55 in    
Wind  
Wind Speed 6 mph ()    
Max Wind Speed 9 mph    
Max Gust Speed -    
Visibility 4.1 miles    
Events Fog    
T = Trace of Precipitation, MM = Missing Value Source: Averaged Metar Reports

Daily Weather History Graph

Daily Weather History Graph

Search for Another Location

Airport or City:

Trip Planner

Search our weather history database for the weather conditions in past years. The results will help you decide how hot, cold, wet, or windy it might be!

Date:

Astronomy

Feb. 28, 2013 Rise Set
Actual Time 7:25 AM GMT 6:10 PM GMT
Civil Twilight 6:50 AM GMT 6:46 PM GMT
Nautical Twilight 6:09 AM GMT 7:27 PM GMT
Astronomical Twilight 5:28 AM GMT 8:08 PM GMT
Moon 10:00 PM GMT (2/28) 7:55 AM GMT (2/28)
Length of Visible Light 11h 56m
Length of Day
10h 45m
Waning Gibbous, 92% of the Moon is Illuminated
Feb 28
Waning Gibbous
Mar 4
Last Quarter
Mar 11
New
Mar 19
First Quarter
Mar 27
Full

Hourly Weather History & Observations

Time (GMT) Temp. Windchill Dew Point Humidity Pressure Visibility Wind Dir Wind Speed Gust Speed Precip Events Conditions
12:00 AM 35 °F - 35 °F 99% 30.65 in - NNE 6.7 mph - -  
6:00 AM 33 °F - 33 °F 100% 30.61 in 0 mi NNE 8.9 mph - - Fog Heavy Fog
8:00 AM 33.8 °F 27.7 °F 33.8 °F 100% 30.57 in 0.2 mi NE 6.9 mph - N/A Fog Fog
8:30 AM 33.8 °F 27.0 °F 33.8 °F 100% 30.57 in 0.2 mi NE 8.1 mph - N/A Fog Fog
9:00 AM 35.6 °F 29.2 °F 35.6 °F 100% 30.57 in 0.2 mi NE 8.1 mph - N/A Fog Fog
9:30 AM 35.6 °F 29.9 °F 33.8 °F 93% 30.57 in 0.2 mi NE 6.9 mph - N/A Fog Fog
10:00 AM 35.6 °F 30.7 °F 35.6 °F 100% 30.57 in 0.1 mi NE 5.8 mph - N/A Fog Fog
10:30 AM 37.4 °F 32.8 °F 35.6 °F 93% 30.57 in 0.2 mi NNE 5.8 mph - N/A Fog Fog
11:00 AM 37.4 °F 32.8 °F 37.4 °F 100% 30.57 in 1.6 mi NE 5.8 mph - N/A   Overcast
11:30 AM 37.4 °F 33.8 °F 37.4 °F 100% 30.57 in 0.9 mi ENE 4.6 mph - N/A Fog Overcast
12:00 PM 39 °F - 38 °F 95% 30.60 in 6 mi NE 6.7 mph - -   Mist
12:00 PM 39.2 °F 35.0 °F 37.4 °F 93% 30.57 in 5.6 mi NE 5.8 mph - N/A   Overcast
12:30 PM 41.0 °F 36.4 °F 37.4 °F 87% 30.54 in 6.2 mi NE 6.9 mph - N/A   Overcast
1:00 PM 41.0 °F 36.4 °F 37.4 °F 87% 30.54 in 6.2 mi NE 6.9 mph - N/A   Overcast
1:30 PM 42.8 °F 38.6 °F 37.4 °F 81% 30.54 in 6.2 mi NNE 6.9 mph - N/A   Mostly Cloudy
2:00 PM 42.8 °F 38.0 °F 37.4 °F 81% 30.54 in 6.2 mi NE 8.1 mph - N/A   Mostly Cloudy
2:30 PM 42.8 °F 38.0 °F 39.2 °F 87% 30.54 in 6.2 mi NNE 8.1 mph - N/A   Mostly Cloudy
3:00 PM 42.8 °F 38.0 °F 37.4 °F 81% 30.54 in 6.2 mi NNE 8.1 mph - N/A   Mostly Cloudy
3:30 PM 44.6 °F 40.7 °F 39.2 °F 81% 30.51 in 6.2 mi North 6.9 mph - N/A   Mostly Cloudy
4:00 PM 44.6 °F 40.7 °F 39.2 °F 81% 30.51 in 6.2 mi North 6.9 mph - N/A   Mostly Cloudy
4:30 PM 46.4 °F 42.4 °F 39.2 °F 76% 30.51 in 6.2 mi NNE 8.1 mph - N/A   Scattered Clouds
5:00 PM 44.6 °F 40.7 °F 39.2 °F 81% 30.51 in 6.2 mi North 6.9 mph - N/A   Mostly Cloudy
6:00 PM 44 °F - 40 °F 82% 30.55 in 9 mi NNE 8.9 mph - -   Mist
6:00 PM 42.8 °F 37.5 °F 41.0 °F 93% 30.51 in 6.2 mi NNE 9.2 mph - N/A   Scattered Clouds
7:00 PM 41.0 °F 35.2 °F 39.2 °F 93% 30.51 in 6.2 mi NNE 9.2 mph - N/A   Scattered Clouds